Main page


Airports :

D15-fa-1, Netherlands

Oil platform

latitude: 54-19-32N, longitude: 2-56-09E, elevation: 36 m

Current weather observation

The report was made 13 minutes ago, at 22:55 UTC
Wind 17 kt from the Southwest, varying between South/Southwest and West
Temperature 6°C
Humidity 81%
Pressure 1008 hPa
Visibility 10 km or more

METAR: EHDV 222255Z AUTO 23017KT 210V270 9999 BKN021/// OVC024/// 06/03 Q1008 W///H///

Time: 00:08 (23:08 UTC)

TAF: missing

Weather observations and forecasts of more than 4000 airports (METAR and TAF reports).

The available stations are represented by yellow and red dots on the map.

Hover mouse over dot to see the name of the station.

Then click to see weather observations and forecasts.

To change the map : click on the green buttons with a black cross to zoom in, on the green button with a dash to zoom out, or on the green arrows for adjacent maps.